Retour au catalogue

M-3H R/B

ActifHEO
NORAD 11028·ROCKET BODY·🇯🇵 Japan

Lancé Sep 16, 1978 depuis Uchinoura Space Center

Loading…

Prochains Passages (prochaines 24 heures)

TLE

FraisSource: Space-Track

Époque: Sep 14, 2026, 07:07 UTC

1 11028U 78087B   26257.29654211  .00025074  00000-0  84969-3 0  9991
2 11028  31.2439 203.7340 3982287 191.4794 155.8329  7.52154682732655

Suivez M-3H R/B en temps réel avec AllMySat

Download on the App Store